Time,TemperatureF,DewpointF,PressureIn,WindDirection,WindDirectionDegrees,WindSpeedMPH,WindSpeedGustMPH,Humidity,HourlyPrecipIn,Conditions,Clouds,dailyrainin,SoftwareType,DateUTC
2013-10-28 00:01:00,32.0,24.0,30.00,North,0,0.0,0.0,72,0.00,,,0.00,WUHU216HW,2013-10-28 05:01:00,
2013-10-28 00:06:00,32.0,24.4,30.00,North,0,0.0,0.0,73,0.00,,,0.00,WUHU216HW,2013-10-28 05:06:00,
2013-10-28 00:11:00,32.0,24.4,30.00,North,0,0.0,0.0,73,0.00,,,0.00,WUHU216HW,2013-10-28 05:11:00,
2013-10-28 00:16:00,32.0,24.4,30.00,North,0,0.0,0.0,73,0.00,,,0.00,WUHU216HW,2013-10-28 05:16:00,
2013-10-28 00:21:00,32.0,24.4,30.00,North,0,0.0,0.0,73,0.00,,,0.00,WUHU216HW,2013-10-28 05:21:00,
2013-10-28 00:26:00,32.0,24.7,30.00,North,0,0.0,0.0,74,0.00,,,0.00,WUHU216HW,2013-10-28 05:26:00,
2013-10-28 00:31:00,32.0,24.7,30.01,North,0,0.0,0.0,74,0.00,,,0.00,WUHU216HW,2013-10-28 05:31:00,
2013-10-28 00:36:00,32.0,24.7,30.01,North,0,0.0,0.0,74,0.00,,,0.00,WUHU216HW,2013-10-28 05:36:00,
2013-10-28 00:41:00,32.0,25.4,30.01,North,0,0.0,0.0,76,0.00,,,0.00,WUHU216HW,2013-10-28 05:41:00,
2013-10-28 00:46:00,32.0,25.0,30.01,North,0,0.0,0.0,75,0.00,,,0.00,WUHU216HW,2013-10-28 05:46:00,
2013-10-28 00:51:00,31.9,25.2,30.01,North,0,0.0,0.0,76,0.00,,,0.00,WUHU216HW,2013-10-28 05:51:00,
2013-10-28 00:56:00,31.9,25.5,30.02,North,0,0.0,0.0,77,0.00,,,0.00,WUHU216HW,2013-10-28 05:56:00,
2013-10-28 01:01:00,33.5,28.3,30.03,North,0,0.0,0.0,81,0.00,,,0.00,WUHU216HW,2013-10-28 06:01:00,
2013-10-28 01:06:00,35.3,29.7,30.03,North,0,0.0,0.0,80,0.00,,,0.00,WUHU216HW,2013-10-28 06:06:00,
2013-10-28 01:11:00,36.2,29.6,30.03,North,0,0.0,0.0,77,0.00,,,0.00,WUHU216HW,2013-10-28 06:11:00,
2013-10-28 01:16:00,36.0,29.2,30.03,North,0,0.0,0.0,76,0.00,,,0.00,WUHU216HW,2013-10-28 06:16:00,
2013-10-28 01:21:00,35.6,28.8,30.03,North,0,0.0,0.0,76,0.00,,,0.00,WUHU216HW,2013-10-28 06:21:00,
2013-10-28 01:26:00,35.5,28.6,30.03,North,0,0.0,0.0,76,0.00,,,0.00,WUHU216HW,2013-10-28 06:26:00,
2013-10-28 01:31:00,35.3,28.1,30.03,North,0,0.0,0.0,75,0.00,,,0.00,WUHU216HW,2013-10-28 06:31:00,
2013-10-28 01:36:00,35.3,28.1,30.04,North,0,0.0,0.0,75,0.00,,,0.00,WUHU216HW,2013-10-28 06:36:00,
2013-10-28 01:41:00,35.6,28.8,30.04,North,0,0.0,0.0,76,0.00,,,0.00,WUHU216HW,2013-10-28 06:41:00,
2013-10-28 01:46:00,36.9,30.3,30.04,North,0,0.0,0.0,77,0.00,,,0.00,WUHU216HW,2013-10-28 06:46:00,
2013-10-28 01:50:00,37.4,30.2,30.04,North,0,0.0,0.0,75,0.00,,,0.00,WUHU216HW,2013-10-28 06:50:00,
2013-10-28 01:55:00,37.8,30.2,30.04,North,0,0.0,0.0,74,0.00,,,0.00,WUHU216HW,2013-10-28 06:55:00,
2013-10-28 02:00:00,38.3,30.4,30.04,North,0,0.0,0.0,73,0.00,,,0.00,WUHU216HW,2013-10-28 07:00:00,
2013-10-28 02:05:00,38.2,30.6,30.05,North,0,0.0,0.0,74,0.00,,,0.00,WUHU216HW,2013-10-28 07:05:00,
2013-10-28 02:10:00,38.3,30.8,30.05,North,0,0.0,0.0,74,0.00,,,0.00,WUHU216HW,2013-10-28 07:10:00,
2013-10-28 02:15:00,38.2,30.6,30.05,North,0,0.0,0.0,74,0.00,,,0.00,WUHU216HW,2013-10-28 07:15:00,
2013-10-28 02:20:00,38.2,31.0,30.06,North,0,0.0,0.0,75,0.00,,,0.00,WUHU216HW,2013-10-28 07:20:00,
2013-10-28 02:25:00,38.2,31.0,30.06,North,0,0.0,0.0,75,0.00,,,0.00,WUHU216HW,2013-10-28 07:25:00,
2013-10-28 02:30:00,38.2,31.2,30.06,North,0,0.0,0.0,76,0.00,,,0.00,WUHU216HW,2013-10-28 07:30:00,
2013-10-28 02:35:00,38.0,31.1,30.07,North,0,0.0,0.0,76,0.00,,,0.00,WUHU216HW,2013-10-28 07:35:00,
2013-10-28 02:40:00,38.0,30.8,30.07,North,0,0.0,0.0,75,0.00,,,0.00,WUHU216HW,2013-10-28 07:40:00,
2013-10-28 02:45:00,37.8,30.9,30.07,North,0,0.0,0.0,76,0.00,,,0.00,WUHU216HW,2013-10-28 07:45:00,
2013-10-28 02:50:00,37.8,30.9,30.07,North,0,0.0,0.0,76,0.00,,,0.00,WUHU216HW,2013-10-28 07:50:00,
2013-10-28 02:55:00,37.8,30.9,30.07,North,0,0.0,0.0,76,0.00,,,0.00,WUHU216HW,2013-10-28 07:55:00,
2013-10-28 03:00:00,37.6,30.8,30.08,North,0,0.0,0.0,76,0.00,,,0.00,WUHU216HW,2013-10-28 08:00:00,
2013-10-28 03:05:00,37.4,30.6,30.08,North,0,0.0,0.0,76,0.00,,,0.00,WUHU216HW,2013-10-28 08:05:00,
2013-10-28 03:10:00,37.3,30.4,30.09,North,0,0.0,0.0,76,0.00,,,0.00,WUHU216HW,2013-10-28 08:10:00,
2013-10-28 03:15:00,37.3,30.7,30.09,North,0,0.0,0.0,77,0.00,,,0.00,WUHU216HW,2013-10-28 08:15:00,
2013-10-28 03:20:00,37.1,30.5,30.09,North,0,0.0,0.0,77,0.00,,,0.00,WUHU216HW,2013-10-28 08:20:00,
2013-10-28 03:25:00,37.1,30.3,30.09,North,0,0.0,0.0,76,0.00,,,0.00,WUHU216HW,2013-10-28 08:25:00,
2013-10-28 03:30:00,37.1,30.5,30.09,North,0,0.0,0.0,77,0.00,,,0.00,WUHU216HW,2013-10-28 08:30:00,
2013-10-28 03:35:00,36.9,30.7,30.10,North,0,0.0,0.0,78,0.00,,,0.00,WUHU216HW,2013-10-28 08:35:00,
2013-10-28 03:40:00,36.7,30.5,30.10,North,0,0.0,0.0,78,0.00,,,0.00,WUHU216HW,2013-10-28 08:40:00,
2013-10-28 03:45:00,36.7,30.5,30.10,North,0,0.0,0.0,78,0.00,,,0.00,WUHU216HW,2013-10-28 08:45:00,
2013-10-28 03:50:00,36.5,30.6,30.11,North,0,0.0,0.0,79,0.00,,,0.00,WUHU216HW,2013-10-28 08:50:00,
2013-10-28 03:55:00,36.7,30.8,30.11,North,0,0.0,0.0,79,0.00,,,0.00,WUHU216HW,2013-10-28 08:55:00,
2013-10-28 04:00:00,36.5,30.6,30.11,North,0,0.0,0.0,79,0.00,,,0.00,WUHU216HW,2013-10-28 09:00:00,
2013-10-28 04:05:00,36.4,30.8,30.12,North,0,0.0,0.0,80,0.00,,,0.00,WUHU216HW,2013-10-28 09:05:00,
2013-10-28 04:10:00,36.2,30.6,30.12,North,0,0.0,0.0,80,0.00,,,0.00,WUHU216HW,2013-10-28 09:10:00,
2013-10-28 04:15:00,36.0,30.4,30.12,North,0,0.0,0.0,80,0.00,,,0.00,WUHU216HW,2013-10-28 09:15:00,
2013-10-28 04:20:00,35.6,29.7,30.13,North,0,0.0,0.0,79,0.00,,,0.00,WUHU216HW,2013-10-28 09:20:00,
2013-10-28 04:25:00,35.6,30.1,30.13,North,0,0.0,0.0,80,0.00,,,0.00,WUHU216HW,2013-10-28 09:25:00,
2013-10-28 04:30:00,35.5,29.9,30.13,North,0,0.0,0.0,80,0.00,,,0.00,WUHU216HW,2013-10-28 09:30:00,
2013-10-28 04:35:00,35.3,29.3,30.13,North,0,0.0,0.0,79,0.00,,,0.00,WUHU216HW,2013-10-28 09:35:00,
2013-10-28 04:40:00,35.3,29.7,30.14,North,0,0.0,0.0,80,0.00,,,0.00,WUHU216HW,2013-10-28 09:40:00,
2013-10-28 04:45:00,35.3,30.0,30.14,North,0,0.0,0.0,81,0.00,,,0.00,WUHU216HW,2013-10-28 09:45:00,
2013-10-28 04:50:00,35.3,29.7,30.14,North,0,0.0,0.0,80,0.00,,,0.00,WUHU216HW,2013-10-28 09:50:00,
2013-10-28 04:55:00,35.3,30.2,30.15,North,0,0.0,0.0,82,0.00,,,0.00,WUHU216HW,2013-10-28 09:55:00,
2013-10-28 05:00:00,35.3,30.2,30.15,North,0,0.0,0.0,82,0.00,,,0.00,WUHU216HW,2013-10-28 10:00:00,
2013-10-28 05:05:00,35.3,30.2,30.15,North,0,0.0,0.0,82,0.00,,,0.00,WUHU216HW,2013-10-28 10:05:00,
2013-10-28 05:10:00,35.5,30.4,30.15,North,0,0.0,0.0,82,0.00,,,0.00,WUHU216HW,2013-10-28 10:10:00,
2013-10-28 05:15:00,35.5,30.4,30.15,North,0,0.0,0.0,82,0.00,,,0.00,WUHU216HW,2013-10-28 10:15:00,
2013-10-28 05:20:00,35.3,30.6,30.16,North,0,0.0,0.0,83,0.00,,,0.00,WUHU216HW,2013-10-28 10:20:00,
2013-10-28 05:25:00,35.3,30.6,30.16,North,0,0.0,0.0,83,0.00,,,0.00,WUHU216HW,2013-10-28 10:25:00,
2013-10-28 05:30:00,35.3,30.9,30.17,North,0,0.0,0.0,84,0.00,,,0.00,WUHU216HW,2013-10-28 10:30:00,
2013-10-28 05:35:00,35.5,31.1,30.17,North,0,0.0,0.0,84,0.00,,,0.00,WUHU216HW,2013-10-28 10:35:00,
2013-10-28 05:40:00,35.6,31.2,30.17,North,0,0.0,0.0,84,0.00,,,0.00,WUHU216HW,2013-10-28 10:40:00,
2013-10-28 05:45:00,35.8,31.4,30.17,North,0,0.0,0.0,84,0.00,,,0.00,WUHU216HW,2013-10-28 10:45:00,
2013-10-28 05:50:00,36.0,31.6,30.17,North,0,0.0,0.0,84,0.00,,,0.00,WUHU216HW,2013-10-28 10:50:00,
2013-10-28 05:55:00,36.0,31.6,30.17,North,0,0.0,0.0,84,0.00,,,0.00,WUHU216HW,2013-10-28 10:55:00,
2013-10-28 06:00:00,36.0,31.6,30.17,North,0,0.0,0.0,84,0.00,,,0.00,WUHU216HW,2013-10-28 11:00:00,
2013-10-28 06:05:00,35.8,31.4,30.17,North,0,0.0,0.0,84,0.00,,,0.00,WUHU216HW,2013-10-28 11:05:00,
2013-10-28 06:10:00,36.0,31.6,30.18,North,0,0.0,0.0,84,0.00,,,0.00,WUHU216HW,2013-10-28 11:10:00,
2013-10-28 06:15:00,35.8,31.4,30.18,North,0,0.0,0.0,84,0.00,,,0.00,WUHU216HW,2013-10-28 11:15:00,
2013-10-28 06:20:00,36.2,32.0,30.18,North,0,0.0,0.0,85,0.00,,,0.00,WUHU216HW,2013-10-28 11:20:00,
2013-10-28 06:25:00,36.4,32.0,30.18,North,0,0.0,0.0,84,0.00,,,0.00,WUHU216HW,2013-10-28 11:25:00,
2013-10-28 06:30:00,36.4,32.0,30.19,North,0,0.0,0.0,84,0.00,,,0.00,WUHU216HW,2013-10-28 11:30:00,
2013-10-28 06:35:00,36.4,32.0,30.19,North,0,0.0,0.0,84,0.00,,,0.00,WUHU216HW,2013-10-28 11:35:00,
2013-10-28 06:40:00,36.4,32.0,30.19,North,0,0.0,0.0,84,0.00,,,0.00,WUHU216HW,2013-10-28 11:40:00,
2013-10-28 06:45:00,36.7,32.3,30.19,North,0,0.0,0.0,84,0.00,,,0.00,WUHU216HW,2013-10-28 11:45:00,
2013-10-28 06:50:00,37.1,32.4,30.19,North,0,0.0,0.0,83,0.00,,,0.00,WUHU216HW,2013-10-28 11:50:00,
2013-10-28 06:55:00,37.3,32.2,30.19,North,0,0.0,0.0,82,0.00,,,0.00,WUHU216HW,2013-10-28 11:55:00,
2013-10-28 07:00:00,37.3,32.2,30.19,North,0,0.0,0.0,82,0.00,,,0.00,WUHU216HW,2013-10-28 12:00:00,
2013-10-28 07:05:00,37.1,32.0,30.20,North,0,0.0,0.0,82,0.00,,,0.00,WUHU216HW,2013-10-28 12:05:00,
2013-10-28 07:10:00,37.1,31.8,30.20,North,0,0.0,0.0,81,0.00,,,0.00,WUHU216HW,2013-10-28 12:10:00,
2013-10-28 07:15:00,37.3,32.0,30.20,North,0,0.0,0.0,81,0.00,,,0.00,WUHU216HW,2013-10-28 12:15:00,
2013-10-28 07:20:00,37.3,31.7,30.20,North,0,0.0,0.0,80,0.00,,,0.00,WUHU216HW,2013-10-28 12:20:00,
2013-10-28 07:25:00,37.3,31.7,30.21,North,0,0.0,0.0,80,0.00,,,0.00,WUHU216HW,2013-10-28 12:25:00,
2013-10-28 07:30:00,37.4,31.5,30.21,North,0,0.0,0.0,79,0.00,,,0.00,WUHU216HW,2013-10-28 12:30:00,
2013-10-28 07:35:00,37.4,31.2,30.22,North,0,0.0,0.0,78,0.00,,,0.00,WUHU216HW,2013-10-28 12:35:00,
2013-10-28 07:40:00,37.6,31.1,30.22,North,0,0.0,0.0,77,0.00,,,0.00,WUHU216HW,2013-10-28 12:40:00,
2013-10-28 07:45:00,37.6,31.1,30.22,North,0,0.0,0.0,77,0.00,,,0.00,WUHU216HW,2013-10-28 12:45:00,
2013-10-28 07:50:00,37.8,31.2,30.22,North,0,0.0,0.0,77,0.00,,,0.00,WUHU216HW,2013-10-28 12:50:00,
2013-10-28 07:55:00,37.8,31.2,30.23,North,0,0.0,0.0,77,0.00,,,0.00,WUHU216HW,2013-10-28 12:55:00,
2013-10-28 08:00:00,37.8,30.9,30.23,North,0,0.0,0.0,76,0.00,,,0.00,WUHU216HW,2013-10-28 13:00:00,
2013-10-28 08:05:00,37.8,30.9,30.23,North,0,0.0,0.0,76,0.00,,,0.00,WUHU216HW,2013-10-28 13:05:00,
2013-10-28 08:10:00,37.8,30.9,30.23,North,0,0.0,0.0,76,0.00,,,0.00,WUHU216HW,2013-10-28 13:10:00,
2013-10-28 08:15:00,38.0,31.1,30.24,North,0,0.0,0.0,76,0.00,,,0.00,WUHU216HW,2013-10-28 13:15:00,
2013-10-28 08:20:00,38.0,30.8,30.24,North,0,0.0,0.0,75,0.00,,,0.00,WUHU216HW,2013-10-28 13:20:00,
2013-10-28 08:25:00,38.0,30.8,30.25,North,0,0.0,0.0,75,0.00,,,0.00,WUHU216HW,2013-10-28 13:25:00,
2013-10-28 08:30:00,38.0,30.4,30.25,North,0,0.0,0.0,74,0.00,,,0.00,WUHU216HW,2013-10-28 13:30:00,
2013-10-28 08:35:00,38.2,30.6,30.25,North,0,0.0,0.0,74,0.00,,,0.00,WUHU216HW,2013-10-28 13:35:00,
2013-10-28 08:40:00,38.3,30.4,30.25,North,0,0.0,0.0,73,0.00,,,0.00,WUHU216HW,2013-10-28 13:40:00,
2013-10-28 08:45:00,38.5,30.2,30.25,North,0,0.0,0.0,72,0.00,,,0.00,WUHU216HW,2013-10-28 13:45:00,
2013-10-28 08:50:00,38.7,30.4,30.25,North,0,0.0,0.0,72,0.00,,,0.00,WUHU216HW,2013-10-28 13:50:00,
2013-10-28 08:55:00,38.9,30.6,30.26,North,0,0.0,0.0,72,0.00,,,0.00,WUHU216HW,2013-10-28 13:55:00,
2013-10-28 09:00:00,39.1,30.8,30.26,North,0,0.0,0.0,72,0.00,,,0.00,WUHU216HW,2013-10-28 14:00:00,
2013-10-28 09:05:00,39.2,30.6,30.26,North,0,0.0,0.0,71,0.00,,,0.00,WUHU216HW,2013-10-28 14:05:00,
2013-10-28 09:10:00,39.4,30.8,30.27,North,0,0.0,0.0,71,0.00,,,0.00,WUHU216HW,2013-10-28 14:10:00,
2013-10-28 09:15:00,39.6,30.6,30.27,North,0,0.0,0.0,70,0.00,,,0.00,WUHU216HW,2013-10-28 14:15:00,
2013-10-28 09:20:00,39.6,31.0,30.27,North,0,0.0,0.0,71,0.00,,,0.00,WUHU216HW,2013-10-28 14:20:00,
2013-10-28 09:25:00,39.6,31.0,30.28,North,0,0.0,0.0,71,0.00,,,0.00,WUHU216HW,2013-10-28 14:25:00,
2013-10-28 09:30:00,39.8,31.2,30.28,North,0,0.0,0.0,71,0.00,,,0.00,WUHU216HW,2013-10-28 14:30:00,
2013-10-28 09:35:00,40.0,31.0,30.28,North,0,0.0,0.0,70,0.00,,,0.00,WUHU216HW,2013-10-28 14:35:00,
2013-10-28 09:40:00,40.3,31.3,30.29,North,0,0.0,0.0,70,0.00,,,0.00,WUHU216HW,2013-10-28 14:40:00,
2013-10-28 09:45:00,40.3,31.0,30.29,North,0,0.0,0.0,69,0.00,,,0.00,WUHU216HW,2013-10-28 14:45:00,
2013-10-28 09:50:00,40.3,30.6,30.29,North,0,0.0,0.0,68,0.00,,,0.00,WUHU216HW,2013-10-28 14:50:00,
2013-10-28 09:55:00,40.7,31.3,30.29,North,0,0.0,0.0,69,0.00,,,0.00,WUHU216HW,2013-10-28 14:55:00,
2013-10-28 10:00:00,40.7,30.5,30.29,North,0,0.0,0.0,67,0.00,,,0.00,WUHU216HW,2013-10-28 15:00:00,
2013-10-28 10:05:00,40.9,30.7,30.29,North,0,0.0,0.0,67,0.00,,,0.00,WUHU216HW,2013-10-28 15:05:00,
2013-10-28 10:10:00,41.0,30.9,30.29,North,0,0.0,0.0,67,0.00,,,0.00,WUHU216HW,2013-10-28 15:10:00,
2013-10-28 10:15:00,41.4,31.2,30.29,North,0,0.0,0.0,67,0.00,,,0.00,WUHU216HW,2013-10-28 15:15:00,
2013-10-28 10:20:00,41.6,31.4,30.30,North,0,0.0,0.0,67,0.00,,,0.00,WUHU216HW,2013-10-28 15:20:00,
2013-10-28 10:25:00,41.6,31.1,30.30,North,0,0.0,0.0,66,0.00,,,0.00,WUHU216HW,2013-10-28 15:25:00,
2013-10-28 10:30:00,41.4,30.9,30.30,North,0,0.0,0.0,66,0.00,,,0.00,WUHU216HW,2013-10-28 15:30:00,
2013-10-28 10:35:00,41.6,31.1,30.30,North,0,0.0,0.0,66,0.00,,,0.00,WUHU216HW,2013-10-28 15:35:00,
2013-10-28 10:40:00,41.8,31.2,30.31,North,0,0.0,0.0,66,0.00,,,0.00,WUHU216HW,2013-10-28 15:40:00,
2013-10-28 10:45:00,41.6,31.1,30.31,North,0,0.0,0.0,66,0.00,,,0.00,WUHU216HW,2013-10-28 15:45:00,
2013-10-28 10:50:00,41.6,30.7,30.31,North,0,0.0,0.0,65,0.00,,,0.00,WUHU216HW,2013-10-28 15:50:00,
2013-10-28 10:55:00,41.4,30.5,30.31,North,0,0.0,0.0,65,0.00,,,0.00,WUHU216HW,2013-10-28 15:55:00,
2013-10-28 11:00:00,41.4,30.5,30.31,North,0,0.0,0.0,65,0.00,,,0.00,WUHU216HW,2013-10-28 16:00:00,
2013-10-28 11:05:00,41.6,30.7,30.31,North,0,0.0,0.0,65,0.00,,,0.00,WUHU216HW,2013-10-28 16:05:00,
2013-10-28 11:10:00,41.8,30.9,30.31,North,0,0.0,0.0,65,0.00,,,0.00,WUHU216HW,2013-10-28 16:10:00,
2013-10-28 11:15:00,41.9,31.0,30.31,North,0,0.0,0.0,65,0.00,,,0.00,WUHU216HW,2013-10-28 16:15:00,
2013-10-28 11:20:00,42.1,30.8,30.31,North,0,0.0,0.0,64,0.00,,,0.00,WUHU216HW,2013-10-28 16:20:00,
2013-10-28 11:25:00,42.5,31.2,30.31,North,0,0.0,0.0,64,0.00,,,0.00,WUHU216HW,2013-10-28 16:25:00,
2013-10-28 11:30:00,42.5,30.7,30.31,North,0,0.0,0.0,63,0.00,,,0.00,WUHU216HW,2013-10-28 16:30:00,
2013-10-28 11:35:00,42.5,30.7,30.31,North,0,0.0,0.0,63,0.00,,,0.00,WUHU216HW,2013-10-28 16:35:00,
2013-10-28 11:40:00,42.5,30.7,30.31,North,0,0.0,0.0,63,0.00,,,0.00,WUHU216HW,2013-10-28 16:40:00,
2013-10-28 11:45:00,42.5,30.7,30.32,North,0,0.0,0.0,63,0.00,,,0.00,WUHU216HW,2013-10-28 16:45:00,
2013-10-28 11:50:00,42.5,30.7,30.32,North,0,0.0,0.0,63,0.00,,,0.00,WUHU216HW,2013-10-28 16:50:00,
2013-10-28 11:55:00,42.7,30.9,30.32,North,0,0.0,0.0,63,0.00,,,0.00,WUHU216HW,2013-10-28 16:55:00,
2013-10-28 12:00:00,42.8,31.1,30.32,North,0,0.0,0.0,63,0.00,,,0.00,WUHU216HW,2013-10-28 17:00:00,
2013-10-28 12:05:00,43.0,30.9,30.32,North,0,0.0,0.0,62,0.00,,,0.00,WUHU216HW,2013-10-28 17:05:00,
2013-10-28 12:10:00,43.0,31.2,30.32,North,0,0.0,0.0,63,0.00,,,0.00,WUHU216HW,2013-10-28 17:10:00,
2013-10-28 12:15:00,43.2,31.4,30.32,North,0,0.0,0.0,63,0.00,,,0.00,WUHU216HW,2013-10-28 17:15:00,
2013-10-28 12:20:00,43.2,31.1,30.32,North,0,0.0,0.0,62,0.00,,,0.00,WUHU216HW,2013-10-28 17:20:00,
2013-10-28 12:25:00,42.8,31.1,30.32,North,0,0.0,0.0,63,0.00,,,0.00,WUHU216HW,2013-10-28 17:25:00,
2013-10-28 12:30:00,43.2,31.4,30.32,North,0,0.0,0.0,63,0.00,,,0.00,WUHU216HW,2013-10-28 17:30:00,
2013-10-28 12:35:00,43.2,31.4,30.32,North,0,0.0,0.0,63,0.00,,,0.00,WUHU216HW,2013-10-28 17:35:00,
2013-10-28 12:40:00,43.2,31.1,30.32,North,0,0.0,0.0,62,0.00,,,0.00,WUHU216HW,2013-10-28 17:40:00,
2013-10-28 12:45:00,43.2,31.1,30.32,North,0,0.0,0.0,62,0.00,,,0.00,WUHU216HW,2013-10-28 17:45:00,
2013-10-28 12:50:00,43.6,31.8,30.31,North,0,0.0,0.0,63,0.00,,,0.00,WUHU216HW,2013-10-28 17:50:00,
2013-10-28 12:55:00,43.7,32.0,30.32,North,0,0.0,0.0,63,0.00,,,0.00,WUHU216HW,2013-10-28 17:55:00,
2013-10-28 13:00:00,43.7,31.6,30.31,North,0,0.0,0.0,62,0.00,,,0.00,WUHU216HW,2013-10-28 18:00:00,
2013-10-28 13:05:00,43.6,31.4,30.31,North,0,0.0,0.0,62,0.00,,,0.00,WUHU216HW,2013-10-28 18:05:00,
2013-10-28 13:10:00,43.4,31.2,30.31,North,0,0.0,0.0,62,0.00,,,0.00,WUHU216HW,2013-10-28 18:10:00,
2013-10-28 13:15:00,43.6,31.4,30.31,North,0,0.0,0.0,62,0.00,,,0.00,WUHU216HW,2013-10-28 18:15:00,
2013-10-28 13:20:00,43.6,31.4,30.31,North,0,0.0,0.0,62,0.00,,,0.00,WUHU216HW,2013-10-28 18:20:00,
2013-10-28 13:25:00,43.7,31.6,30.31,North,0,0.0,0.0,62,0.00,,,0.00,WUHU216HW,2013-10-28 18:25:00,
2013-10-28 13:30:00,43.9,31.8,30.31,North,0,0.0,0.0,62,0.00,,,0.00,WUHU216HW,2013-10-28 18:30:00,
2013-10-28 13:35:00,43.9,31.8,30.31,North,0,0.0,0.0,62,0.00,,,0.00,WUHU216HW,2013-10-28 18:35:00,
2013-10-28 13:40:00,43.9,31.8,30.31,North,0,0.0,0.0,62,0.00,,,0.00,WUHU216HW,2013-10-28 18:40:00,
2013-10-28 13:45:00,44.1,32.0,30.31,North,0,0.0,0.0,62,0.00,,,0.00,WUHU216HW,2013-10-28 18:45:00,
2013-10-28 13:50:00,43.9,31.3,30.31,North,0,0.0,0.0,61,0.00,,,0.00,WUHU216HW,2013-10-28 18:50:00,
2013-10-28 13:55:00,43.9,31.8,30.31,North,0,0.0,0.0,62,0.00,,,0.00,WUHU216HW,2013-10-28 18:55:00,
2013-10-28 14:00:00,43.7,31.6,30.31,North,0,0.0,0.0,62,0.00,,,0.00,WUHU216HW,2013-10-28 19:00:00,
2013-10-28 14:05:00,43.9,31.8,30.30,North,0,0.0,0.0,62,0.00,,,0.00,WUHU216HW,2013-10-28 19:05:00,
2013-10-28 14:10:00,44.1,32.0,30.30,North,0,0.0,0.0,62,0.00,,,0.00,WUHU216HW,2013-10-28 19:10:00,
2013-10-28 14:15:00,44.1,31.5,30.30,North,0,0.0,0.0,61,0.00,,,0.00,WUHU216HW,2013-10-28 19:15:00,
2013-10-28 14:20:00,43.9,31.3,30.30,North,0,0.0,0.0,61,0.00,,,0.00,WUHU216HW,2013-10-28 19:20:00,
2013-10-28 14:25:00,43.9,31.8,30.30,North,0,0.0,0.0,62,0.00,,,0.00,WUHU216HW,2013-10-28 19:25:00,
2013-10-28 14:30:00,43.9,31.8,30.30,North,0,0.0,0.0,62,0.00,,,0.00,WUHU216HW,2013-10-28 19:30:00,
2013-10-28 14:35:00,44.3,31.7,30.30,North,0,0.0,0.0,61,0.00,,,0.00,WUHU216HW,2013-10-28 19:35:00,
2013-10-28 14:40:00,44.3,32.0,30.30,North,0,0.0,0.0,62,0.00,,,0.00,WUHU216HW,2013-10-28 19:40:00,
2013-10-28 14:45:00,43.9,31.3,30.30,North,0,0.0,0.0,61,0.00,,,0.00,WUHU216HW,2013-10-28 19:45:00,
2013-10-28 14:50:00,43.7,31.6,30.30,North,0,0.0,0.0,62,0.00,,,0.00,WUHU216HW,2013-10-28 19:50:00,
2013-10-28 14:55:00,43.6,31.4,30.30,North,0,0.0,0.0,62,0.00,,,0.00,WUHU216HW,2013-10-28 19:55:00,
2013-10-28 15:00:00,43.7,32.0,30.30,North,0,0.0,0.0,63,0.00,,,0.00,WUHU216HW,2013-10-28 20:00:00,
2013-10-28 15:05:00,43.7,31.6,30.30,North,0,0.0,0.0,62,0.00,,,0.00,WUHU216HW,2013-10-28 20:05:00,
2013-10-28 15:10:00,43.7,31.6,30.30,North,0,0.0,0.0,62,0.00,,,0.00,WUHU216HW,2013-10-28 20:10:00,
2013-10-28 15:15:00,43.7,32.0,30.30,North,0,0.0,0.0,63,0.00,,,0.00,WUHU216HW,2013-10-28 20:15:00,
2013-10-28 15:20:00,43.7,32.0,30.30,North,0,0.0,0.0,63,0.00,,,0.00,WUHU216HW,2013-10-28 20:20:00,
2013-10-28 15:25:00,43.7,32.0,30.31,North,0,0.0,0.0,63,0.00,,,0.00,WUHU216HW,2013-10-28 20:25:00,
2013-10-28 15:30:00,43.7,32.0,30.31,North,0,0.0,0.0,63,0.00,,,0.00,WUHU216HW,2013-10-28 20:30:00,
2013-10-28 15:35:00,43.7,32.0,30.31,North,0,0.0,0.0,63,0.00,,,0.00,WUHU216HW,2013-10-28 20:35:00,
2013-10-28 15:40:00,43.7,32.0,30.31,North,0,0.0,0.0,63,0.00,,,0.00,WUHU216HW,2013-10-28 20:40:00,
2013-10-28 15:45:00,43.7,32.0,30.31,North,0,0.0,0.0,63,0.00,,,0.00,WUHU216HW,2013-10-28 20:45:00,
2013-10-28 15:50:00,43.7,32.0,30.31,North,0,0.0,0.0,63,0.00,,,0.00,WUHU216HW,2013-10-28 20:50:00,
2013-10-28 15:55:00,43.7,32.0,30.31,North,0,0.0,0.0,63,0.00,,,0.00,WUHU216HW,2013-10-28 20:55:00,
2013-10-28 16:00:00,43.6,31.8,30.31,North,0,0.0,0.0,63,0.00,,,0.00,WUHU216HW,2013-10-28 21:00:00,
2013-10-28 16:05:00,43.6,31.8,30.31,North,0,0.0,0.0,63,0.00,,,0.00,WUHU216HW,2013-10-28 21:05:00,
2013-10-28 16:10:00,43.6,31.8,30.31,North,0,0.0,0.0,63,0.00,,,0.00,WUHU216HW,2013-10-28 21:10:00,
2013-10-28 16:15:00,43.7,32.0,30.31,North,0,0.0,0.0,63,0.00,,,0.00,WUHU216HW,2013-10-28 21:15:00,
2013-10-28 16:20:00,43.6,31.8,30.31,North,0,0.0,0.0,63,0.00,,,0.00,WUHU216HW,2013-10-28 21:20:00,
2013-10-28 16:25:00,43.7,32.0,30.31,North,0,0.0,0.0,63,0.00,,,0.00,WUHU216HW,2013-10-28 21:25:00,
2013-10-28 16:30:00,43.7,32.0,30.31,North,0,0.0,0.0,63,0.00,,,0.00,WUHU216HW,2013-10-28 21:30:00,
2013-10-28 16:35:00,43.9,32.1,30.31,North,0,0.0,0.0,63,0.00,,,0.00,WUHU216HW,2013-10-28 21:35:00,
2013-10-28 16:40:00,43.7,32.0,30.32,North,0,0.0,0.0,63,0.00,,,0.00,WUHU216HW,2013-10-28 21:40:00,
2013-10-28 16:45:00,43.7,32.3,30.31,North,0,0.0,0.0,64,0.00,,,0.00,WUHU216HW,2013-10-28 21:45:00,
2013-10-28 16:50:00,43.6,31.8,30.32,North,0,0.0,0.0,63,0.00,,,0.00,WUHU216HW,2013-10-28 21:50:00,
2013-10-28 16:55:00,43.6,31.8,30.32,North,0,0.0,0.0,63,0.00,,,0.00,WUHU216HW,2013-10-28 21:55:00,
2013-10-28 17:00:00,43.6,32.1,30.32,North,0,0.0,0.0,64,0.00,,,0.00,WUHU216HW,2013-10-28 22:00:00,
2013-10-28 17:05:00,43.6,31.8,30.32,North,0,0.0,0.0,63,0.00,,,0.00,WUHU216HW,2013-10-28 22:05:00,
2013-10-28 17:10:00,43.4,32.0,30.32,North,0,0.0,0.0,64,0.00,,,0.00,WUHU216HW,2013-10-28 22:10:00,
2013-10-28 17:15:00,43.2,31.8,30.32,North,0,0.0,0.0,64,0.00,,,0.00,WUHU216HW,2013-10-28 22:15:00,
2013-10-28 17:20:00,43.2,31.8,30.32,North,0,0.0,0.0,64,0.00,,,0.00,WUHU216HW,2013-10-28 22:20:00,
2013-10-28 17:25:00,43.2,32.2,30.32,North,0,0.0,0.0,65,0.00,,,0.00,WUHU216HW,2013-10-28 22:25:00,
2013-10-28 17:30:00,43.0,32.1,30.32,North,0,0.0,0.0,65,0.00,,,0.00,WUHU216HW,2013-10-28 22:30:00,
2013-10-28 17:35:00,42.8,31.9,30.32,North,0,0.0,0.0,65,0.00,,,0.00,WUHU216HW,2013-10-28 22:35:00,
2013-10-28 17:40:00,42.7,31.7,30.32,North,0,0.0,0.0,65,0.00,,,0.00,WUHU216HW,2013-10-28 22:40:00,
2013-10-28 17:45:00,42.7,31.7,30.32,North,0,0.0,0.0,65,0.00,,,0.00,WUHU216HW,2013-10-28 22:45:00,
2013-10-28 17:50:00,42.5,31.5,30.32,North,0,0.0,0.0,65,0.00,,,0.00,WUHU216HW,2013-10-28 22:50:00,
2013-10-28 17:55:00,42.5,32.0,30.32,North,0,0.0,0.0,66,0.00,,,0.00,WUHU216HW,2013-10-28 22:55:00,
2013-10-28 18:00:00,42.3,32.1,30.32,North,0,0.0,0.0,67,0.00,,,0.00,WUHU216HW,2013-10-28 23:00:00,
2013-10-28 18:05:00,42.1,32.0,30.32,North,0,0.0,0.0,67,0.00,,,0.00,WUHU216HW,2013-10-28 23:05:00,
2013-10-28 18:10:00,42.1,32.0,30.32,North,0,0.0,0.0,67,0.00,,,0.00,WUHU216HW,2013-10-28 23:10:00,
2013-10-28 18:15:00,41.9,31.8,30.32,North,0,0.0,0.0,67,0.00,,,0.00,WUHU216HW,2013-10-28 23:15:00,
2013-10-28 18:20:00,41.9,31.8,30.32,North,0,0.0,0.0,67,0.00,,,0.00,WUHU216HW,2013-10-28 23:20:00,
2013-10-28 18:25:00,41.8,31.6,30.32,North,0,0.0,0.0,67,0.00,,,0.00,WUHU216HW,2013-10-28 23:25:00,
2013-10-28 18:30:00,41.8,31.6,30.33,North,0,0.0,0.0,67,0.00,,,0.00,WUHU216HW,2013-10-28 23:30:00,
2013-10-28 18:35:00,41.8,31.6,30.33,North,0,0.0,0.0,67,0.00,,,0.00,WUHU216HW,2013-10-28 23:35:00,
2013-10-28 18:40:00,41.6,31.4,30.33,North,0,0.0,0.0,67,0.00,,,0.00,WUHU216HW,2013-10-28 23:40:00,
2013-10-28 18:45:00,41.6,31.4,30.33,North,0,0.0,0.0,67,0.00,,,0.00,WUHU216HW,2013-10-28 23:45:00,
2013-10-28 18:50:00,41.4,31.2,30.34,North,0,0.0,0.0,67,0.00,,,0.00,WUHU216HW,2013-10-28 23:50:00,
2013-10-28 18:55:00,41.4,31.2,30.33,North,0,0.0,0.0,67,0.00,,,0.00,WUHU216HW,2013-10-28 23:55:00,
2013-10-28 19:00:00,41.4,31.2,30.33,North,0,0.0,0.0,67,0.00,,,0.00,WUHU216HW,2013-10-29 00:00:00,
2013-10-28 19:05:00,41.2,31.1,30.33,North,0,0.0,0.0,67,0.00,,,0.00,WUHU216HW,2013-10-29 00:05:00,
2013-10-28 19:10:00,41.2,31.5,30.34,North,0,0.0,0.0,68,0.00,,,0.00,WUHU216HW,2013-10-29 00:10:00,
2013-10-28 19:15:00,41.0,31.3,30.35,North,0,0.0,0.0,68,0.00,,,0.00,WUHU216HW,2013-10-29 00:15:00,
2013-10-28 19:20:00,41.0,31.3,30.35,North,0,0.0,0.0,68,0.00,,,0.00,WUHU216HW,2013-10-29 00:20:00,
2013-10-28 19:25:00,41.0,31.7,30.35,North,0,0.0,0.0,69,0.00,,,0.00,WUHU216HW,2013-10-29 00:25:00,
2013-10-28 19:30:00,40.9,31.2,30.35,North,0,0.0,0.0,68,0.00,,,0.00,WUHU216HW,2013-10-29 00:30:00,
2013-10-28 19:35:00,40.9,31.2,30.35,North,0,0.0,0.0,68,0.00,,,0.00,WUHU216HW,2013-10-29 00:35:00,
2013-10-28 19:40:00,40.7,31.0,30.34,North,0,0.0,0.0,68,0.00,,,0.00,WUHU216HW,2013-10-29 00:40:00,
2013-10-28 19:45:00,40.7,31.3,30.34,North,0,0.0,0.0,69,0.00,,,0.00,WUHU216HW,2013-10-29 00:45:00,
2013-10-28 19:50:00,40.7,31.3,30.35,North,0,0.0,0.0,69,0.00,,,0.00,WUHU216HW,2013-10-29 00:50:00,
2013-10-28 19:55:00,40.7,31.0,30.35,North,0,0.0,0.0,68,0.00,,,0.00,WUHU216HW,2013-10-29 00:55:00,
2013-10-28 20:00:00,40.7,31.0,30.35,North,0,0.0,0.0,68,0.00,,,0.00,WUHU216HW,2013-10-29 01:00:00,
2013-10-28 20:05:00,40.5,30.8,30.36,North,0,0.0,0.0,68,0.00,,,0.00,WUHU216HW,2013-10-29 01:05:00,
2013-10-28 20:10:00,40.5,30.3,30.36,North,0,0.0,0.0,67,0.00,,,0.00,WUHU216HW,2013-10-29 01:10:00,
2013-10-28 20:15:00,40.3,30.2,30.35,North,0,0.0,0.0,67,0.00,,,0.00,WUHU216HW,2013-10-29 01:15:00,
2013-10-28 20:20:00,40.3,30.2,30.35,North,0,0.0,0.0,67,0.00,,,0.00,WUHU216HW,2013-10-29 01:20:00,
2013-10-28 20:25:00,40.3,30.2,30.36,North,0,0.0,0.0,67,0.00,,,0.00,WUHU216HW,2013-10-29 01:25:00,
2013-10-28 20:30:00,40.1,30.0,30.36,North,0,0.0,0.0,67,0.00,,,0.00,WUHU216HW,2013-10-29 01:30:00,
2013-10-28 20:35:00,40.0,29.8,30.35,North,0,0.0,0.0,67,0.00,,,0.00,WUHU216HW,2013-10-29 01:35:00,
2013-10-28 20:40:00,40.0,29.8,30.36,North,0,0.0,0.0,67,0.00,,,0.00,WUHU216HW,2013-10-29 01:40:00,
2013-10-28 20:45:00,40.0,29.8,30.36,North,0,0.0,0.0,67,0.00,,,0.00,WUHU216HW,2013-10-29 01:45:00,
2013-10-28 20:50:00,39.8,29.3,30.36,North,0,0.0,0.0,66,0.00,,,0.00,WUHU216HW,2013-10-29 01:50:00,
2013-10-28 20:55:00,39.8,29.3,30.36,North,0,0.0,0.0,66,0.00,,,0.00,WUHU216HW,2013-10-29 01:55:00,
2013-10-28 21:00:00,39.6,28.7,30.35,North,0,0.0,0.0,65,0.00,,,0.00,WUHU216HW,2013-10-29 02:00:00,
2013-10-28 21:05:00,39.4,28.2,30.36,North,0,0.0,0.0,64,0.00,,,0.00,WUHU216HW,2013-10-29 02:05:00,
2013-10-28 21:10:00,39.4,28.2,30.36,North,0,0.0,0.0,64,0.00,,,0.00,WUHU216HW,2013-10-29 02:10:00,
2013-10-28 21:15:00,39.2,28.0,30.36,North,0,0.0,0.0,64,0.00,,,0.00,WUHU216HW,2013-10-29 02:15:00,
2013-10-28 21:20:00,39.2,28.0,30.36,North,0,0.0,0.0,64,0.00,,,0.00,WUHU216HW,2013-10-29 02:20:00,
2013-10-28 21:25:00,39.2,28.0,30.36,North,0,0.0,0.0,64,0.00,,,0.00,WUHU216HW,2013-10-29 02:25:00,
2013-10-28 21:30:00,39.1,27.8,30.36,North,0,0.0,0.0,64,0.00,,,0.00,WUHU216HW,2013-10-29 02:30:00,
2013-10-28 21:35:00,39.1,28.2,30.36,North,0,0.0,0.0,65,0.00,,,0.00,WUHU216HW,2013-10-29 02:35:00,
2013-10-28 21:40:00,38.9,28.0,30.37,North,0,0.0,0.0,65,0.00,,,0.00,WUHU216HW,2013-10-29 02:40:00,
2013-10-28 21:45:00,38.9,28.0,30.36,North,0,0.0,0.0,65,0.00,,,0.00,WUHU216HW,2013-10-29 02:45:00,
2013-10-28 21:50:00,38.9,28.0,30.36,North,0,0.0,0.0,65,0.00,,,0.00,WUHU216HW,2013-10-29 02:50:00,
2013-10-28 21:55:00,38.7,27.9,30.36,North,0,0.0,0.0,65,0.00,,,0.00,WUHU216HW,2013-10-29 02:55:00,
2013-10-28 22:00:00,38.7,27.9,30.37,North,0,0.0,0.0,65,0.00,,,0.00,WUHU216HW,2013-10-29 03:00:00,
2013-10-28 22:05:00,38.5,28.1,30.37,North,0,0.0,0.0,66,0.00,,,0.00,WUHU216HW,2013-10-29 03:05:00,
2013-10-28 22:10:00,38.5,28.1,30.36,North,0,0.0,0.0,66,0.00,,,0.00,WUHU216HW,2013-10-29 03:10:00,
2013-10-28 22:15:00,38.5,27.7,30.37,North,0,0.0,0.0,65,0.00,,,0.00,WUHU216HW,2013-10-29 03:15:00,
2013-10-28 22:20:00,38.5,28.1,30.37,North,0,0.0,0.0,66,0.00,,,0.00,WUHU216HW,2013-10-29 03:20:00,
2013-10-28 22:25:00,38.5,28.1,30.37,North,0,0.0,0.0,66,0.00,,,0.00,WUHU216HW,2013-10-29 03:25:00,
2013-10-28 22:30:00,38.5,28.1,30.37,North,0,0.0,0.0,66,0.00,,,0.00,WUHU216HW,2013-10-29 03:30:00,
2013-10-28 22:35:00,38.5,28.4,30.37,North,0,0.0,0.0,67,0.00,,,0.00,WUHU216HW,2013-10-29 03:35:00,
2013-10-28 22:40:00,38.5,28.1,30.37,North,0,0.0,0.0,66,0.00,,,0.00,WUHU216HW,2013-10-29 03:40:00,
2013-10-28 22:45:00,38.5,28.1,30.37,North,0,0.0,0.0,66,0.00,,,0.00,WUHU216HW,2013-10-29 03:45:00,
2013-10-28 22:50:00,38.5,28.4,30.37,North,0,0.0,0.0,67,0.00,,,0.00,WUHU216HW,2013-10-29 03:50:00,
2013-10-28 22:55:00,38.3,28.3,30.36,North,0,0.0,0.0,67,0.00,,,0.00,WUHU216HW,2013-10-29 03:55:00,
2013-10-28 23:00:00,38.3,28.3,30.37,North,0,0.0,0.0,67,0.00,,,0.00,WUHU216HW,2013-10-29 04:00:00,
2013-10-28 23:01:00,38.3,28.3,30.36,North,0,0.0,0.0,67,0.00,,,0.00,WUHU216HW,2013-10-29 04:01:00,
2013-10-28 23:06:00,38.3,28.3,30.36,North,0,0.0,0.0,67,0.00,,,0.00,WUHU216HW,2013-10-29 04:06:00,
2013-10-28 23:11:00,38.2,28.2,30.36,North,0,0.0,0.0,67,0.00,,,0.00,WUHU216HW,2013-10-29 04:11:00,
2013-10-28 23:16:00,38.2,28.2,30.36,North,0,0.0,0.0,67,0.00,,,0.00,WUHU216HW,2013-10-29 04:16:00,
2013-10-28 23:21:00,38.2,28.2,30.36,North,0,0.0,0.0,67,0.00,,,0.00,WUHU216HW,2013-10-29 04:21:00,
2013-10-28 23:26:00,38.2,28.2,30.36,North,0,0.0,0.0,67,0.00,,,0.00,WUHU216HW,2013-10-29 04:26:00,
2013-10-28 23:31:00,38.2,28.2,30.35,North,0,0.0,0.0,67,0.00,,,0.00,WUHU216HW,2013-10-29 04:31:00,
2013-10-28 23:36:00,38.2,28.2,30.35,North,0,0.0,0.0,67,0.00,,,0.00,WUHU216HW,2013-10-29 04:36:00,
2013-10-28 23:41:00,38.0,28.0,30.35,North,0,0.0,0.0,67,0.00,,,0.00,WUHU216HW,2013-10-29 04:41:00,
2013-10-28 23:46:00,38.0,28.0,30.35,North,0,0.0,0.0,67,0.00,,,0.00,WUHU216HW,2013-10-29 04:46:00,
2013-10-28 23:51:00,38.0,28.0,30.35,North,0,0.0,0.0,67,0.00,,,0.00,WUHU216HW,2013-10-29 04:51:00,
2013-10-28 23:56:00,37.8,27.8,30.35,North,0,0.0,0.0,67,0.00,,,0.00,WUHU216HW,2013-10-29 04:56:00,